Location: New Canada
(47.1017°N, 68.5042°W)
Time: 05:35:21
(UTC+00:00)

STARS - Visible Passes

Search period start: 23 March 2023 00:00
Search period end: 02 April 2023 00:00
Orbit: 616 x 633 km, 98.1° (Epoch: 22 March)

Date Brightness Start Highest point End Pass type
(mag) Time Alt. Az. Time Alt. Az. Time Alt. Az.
28 Mar ? 04:47:33 10° N 04:47:38 10° N 04:47:38 10° N visible
29 Mar ? 05:06:39 10° NNW 05:06:40 10° NNW 05:06:40 10° NNW visible
30 Mar ? 03:48:24 10° NNE 03:48:25 10° NNE 03:48:25 10° NNE visible
31 Mar ? 04:07:06 10° N 04:07:27 12° N 04:07:27 12° N visible
01 Apr ? 04:25:54 10° N 04:26:27 13° N 04:26:27 13° N visible
